Regional Weather Roundup
Issued by NWS

Home | Current Version | Previous Version | Graphics & Text | Print | Product List | Glossary On
Versions: 1 2 3 4 5 6 7 8 9 10 11 12 13 14 15 16 17 18 19 20 21 22 23 24 25 26 27 28 29 30 31 32 33 34 35 36 37 38 39 40 41 42 43 44 45 46 47 48 49 50
000
ASUS43 KMKX 011159
RWRWI

WISCONSIN REGIONAL WEATHER ROUNDUP
NATIONAL WEATHER SERVICE MILWAUKEE/SULLIVAN WI
600 AM CST SUN MAR 01 2015

NOTE: "FAIR" INDICATES FEW OR NO CLOUDS BELOW 12,000 FEET WITH NO
SIGNIFICANT WEATHER AND/OR OBSTRUCTIONS TO VISIBILITY.

WIZ001-002-006>008-014>016-023>028-011300-
NORTHWEST WISCONSIN

CITY           SKY/WX    TMP DP  RH WIND       PRES   REMARKS
SUPERIOR ARPT  FLURRIES  14   8  78 SW7       30.18F WCI   4
ASHLAND        CLOUDY    13   8  81 S9        30.19F WCI   1
6HR MIN TEMP:  13; 6HR MAX TEMP:  14; 6HR PCP: TRACE;

HAYWARD        LGT SNOW  13   7  77 S12       30.18S WCI  -1
6HR MIN TEMP:  11; 6HR MAX TEMP:  13; 6HR PCP: TRACE;

SIREN          CLOUDY    16  11  81 SW10      30.20S WCI   4
CUMBERLAND     MIX PCPN  14  10  85 S8        30.20S WCI   3
RICE LAKE      LGT SNOW  13   9  84 S7        30.23S WCI   2
CHETEK         FLURRIES  12   8  85 S3        30.23S
LADYSMITH      FLURRIES  10   6  85 S6        30.24R WCI   1
6HR MIN TEMP:  10; 6HR MAX TEMP:  13;

EAU CLAIRE     NOT AVBL
MENOMONIE      PTCLDY    12   8  83 CALM      30.26S
NEW RICHMOND   CLOUDY    15  11  85 SW9       30.22F WCI   3
OSCEOLA        CLOUDY    15  12  85 S7        30.25F WCI   6
$$

WIZ003>005-009-010-017-018-011300-
NORTH CENTRAL WISCONSIN

CITY           SKY/WX    TMP DP  RH WIND       PRES   REMARKS
MANITOWISH WTR LGT SNOW  10   5  80 SW9       30.16F WCI  -3
ARBOR VITAE    FLURRIES  11   5  76 S6        30.17F WCI   2
WOODRUFF       FLURRIES  11   5  76 S6        30.17F WCI   2
RHINELANDER    CLOUDY     8   1  73 SW8       30.19F WCI  -4
6HR MIN TEMP:   8; 6HR MAX TEMP:  11;

EAGLE RIVER    FLURRIES   8   0  69 SW8       30.17F WCI  -4
LAND O LAKES   CLOUDY     9   2  73 SW5       30.17F WCI   0
PHILLIPS       LGT SNOW  10   5  82 S7        30.18F WCI  -2
TOMAHAWK       FLURRIES   9   2  75 CALM      30.21F
MEDFORD        FLURRIES   8   3  78 S6        30.22F WCI  -2
MERRILL        FLURRIES   9   2  72 CALM      30.24F
$$

WIZ029-030-035-036-043>047-011300-
CENTRAL WISCONSIN

CITY           SKY/WX    TMP DP  RH WIND       PRES   REMARKS
WAUSAU         MOCLDY     8   2  76 S3        30.25F
6HR MIN TEMP:   8; 6HR MAX TEMP:  12;

MOSINEE        MOCLDY     7   3  85 S7        30.27F WCI  -5
MARSHFIELD     CLOUDY     9   4  80 SW7       30.26F WCI  -2
6HR MIN TEMP:   9; 6HR MAX TEMP:  12;

STEVENS POINT  FLURRIES   8   3  80 S6        30.30F WCI  -3
WAUPACA        LGT SNOW  10   4  77 CALM      30.33F
WAUTOMA        NOT AVBL
WISC RAPIDS    PTCLDY     8   2  76 S5        30.31F WCI   0
6HR MIN TEMP:   8; 6HR MAX TEMP:  13;

CAMP DOUGLAS   NOT AVBL
$$

WIZ011>013-019>022-031-037>040-048>050-011300-
NORTHEAST WISCONSIN

CITY           SKY/WX    TMP DP  RH WIND       PRES   REMARKS
ANTIGO         FLURRIES   6   1  78 SW3       30.23F
SHAWANO        CLOUDY    11   2  66 SW3       30.33R
OCONTO         PTCLDY     9   2  73 CALM      30.34S
STURGEON BAY   CLEAR     10   3  72 SW9       30.34F WCI  -2
6HR MIN TEMP:  10; 6HR MAX TEMP:  16;

GREEN BAY      MOCLDY    11   7  84 SW3       30.34F
6HR MIN TEMP:  11; 6HR MAX TEMP:  15;

MANITOWOC      PTCLDY    12   9  85 CALM      30.36F
APPLETON       MOCLDY     9   3  78 SW7       30.33F WCI  -3
CLINTONVILLE   MOCLDY     9   3  78 SW6       30.32F WCI  -1
OSHKOSH        PTCLDY     8   4  83 S5        30.33F WCI   0
6HR MIN TEMP:   7; 6HR MAX TEMP:  14; 6HR PCP: TRACE;

$$

WIZ032>034-041-042-053>061-011300-
SOUTHWEST WISCONSIN

CITY           SKY/WX    TMP DP  RH WIND       PRES   REMARKS
LA CROSSE      PTCLDY    10   6  84 S6        30.32F WCI   0
6HR MIN TEMP:   9; 6HR MAX TEMP:  14;

SPARTA         PTCLDY     3   0  85 CALM      30.32F
VIROQUA        PTCLDY     8   6  92 S5        30.28S WCI   0
BOSCOBEL       CLOUDY     4  -1  80 CALM      30.36S
6HR MIN TEMP:   3; 6HR MAX TEMP:   8;

PRAIRIE DU CHI FLURRIES   9   4  80 SE3       30.36S
PLATTEVILLE    CLOUDY    12  10  90 CALM      30.33F VSB 1/4
$$

WIZ056-057-062-063-064-067-068-011300-
SOUTH CENTRAL WISCONSIN

CITY           SKY/WX    TMP DP  RH WIND       PRES   REMARKS
REEDSBURG      FLURRIES  10   8  89 SW6       30.32F WCI   1
BARABOO/DELLS  PTCLDY    10   7  87 CALM      30.32F
LONE ROCK      NOT AVBL
MINERAL POINT  LGT SNOW  14  12  92 SW3       30.32R
MADISON        FLURRIES  15  10  80 CALM      30.33F
6HR MIN TEMP:  14; 6HR MAX TEMP:  15; 6HR PCP: TRACE;

MIDDLETON      CLOUDY    16  12  82 CALM      30.34F
WATERTOWN      FLURRIES  12  11  93 CALM      30.34F
MONROE         LGT SNOW  16  14  93 W7        30.33S WCI   6
JANESVILLE     NOT AVBL
$$

WIZ051-052-058>065-066-070>072-011300-
SOUTHEAST WISCONSIN

CITY           SKY/WX    TMP DP  RH WIND       PRES   REMARKS
MILWAUKEE      CLOUDY    14  10  84 CALM      30.37S
6HR MIN TEMP:  12; 6HR MAX TEMP:  17; 6HR PCP: TRACE;

WAUKESHA       CLEAR      7   5  92 CALM      30.35F FOG
MILWAUKEE/TIMM PTCLDY    12  10  92 CALM      30.37S
RACINE         CLOUDY    14  11  87 SW3       30.39S
6HR MIN TEMP:   6; 6HR MAX TEMP:  18; 6HR PCP: TRACE;

BURLINGTON     CLOUDY     8   6  91 SW3       30.37S
KENOSHA        CLOUDY    13  10  88 SW3       30.37F FOG
6HR MIN TEMP:   3; 6HR MAX TEMP:  17; 6HR PCP: TRACE;

FOND DU LAC    PTCLDY     9   6  88 S5        30.34F WCI   1
6HR MIN TEMP:   9; 6HR MAX TEMP:  15; 6HR PCP: TRACE;

SHEBOYGAN      MOCLDY    11   8  88 SW3       30.34F
6HR MIN TEMP:   9; 6HR MAX TEMP:  16; 6HR PCP: TRACE;

WEST BEND      CLOUDY    14  10  85 W5        30.34F WCI   6
JUNEAU         LGT SNOW  11   9  91 CALM      30.34F
$$

LSZ147-162-011300-
LAKE SUPERIOR

STATION/POSITION TIME  TEMP    WIND        PRES    WAVE
                       AIR SEA DIR/SP/G            HT/PER
                 (UTC) (F)     (DEG/KT/KT) (MB)    (FT/S)
DEVILS ISLAND    1100   16     230/ 16/ 22 1023.4F
PORT WING        1100   15     200/  6/ 13 1022.4F
SAXON HARBOR     1100   16     200/  9/ 17 1022.7
$$

LMZ867-665-643>646-011300-
LAKE MICHIGAN

STATION/POSITION TIME  TEMP    WIND        PRES    WAVE
                       AIR SEA DIR/SP/G            HT/PER
                 (UTC) (F)     (DEG/KT/KT) (MB)    (FT/S)
NORTHPORT PIER   1105   14     230/  7/ 15 1027.1S
KEWAUNEE LAKESHO 1100   13     240/  4/  8 1027.1F
SHEBOYGAN LAKESH 1100   16     230/  7/  9 1030.1F
PORT WASHINGTON  1140   15     270/  2/  3 1028.8F
MILWAUKEE LAKESH 1100   16     270/  6/  8   N/A
KENOSHA   LAKESH 1100   15     260/  2/  3 1028.8F
$$

TC  - TEMPERATURE IN CELSIUS
VSB - VISIBILITY IN STATUTE MILES
WCI - WIND CHILL INDEX
HX  - HEAT INDEX



USA.gov is the U.S. government's official web portal to all federal, state and local government web resources and services.